Location: Plourde
(48.6886°N, 67.9500°W)
Time: 11:10:28
(UTC+00:00)

N. Korean satellite - Visible Passes

Search period start: 05 December 2021 00:00
Search period end: 15 December 2021 00:00
Orbit: 446 x 495 km, 97.3° (Epoch: 05 December)

Date Brightness Start Highest point End Pass type
(mag) Time Alt. Az. Time Alt. Az. Time Alt. Az.
05 Dec 9.1 09:04:59 10° NE 09:07:33 20° E 09:10:07 10° SE visible
05 Dec 7.2 10:37:50 10° N 10:40:48 28° WNW 10:43:45 10° SW visible
05 Dec 7.8 21:15:01 10° S 21:18:25 44° W 21:21:46 10° NNW visible
06 Dec 6.3 10:09:01 10° N 10:12:23 63° WNW 10:15:43 10° SSW visible
07 Dec 7.1 09:40:30 10° NNE 09:43:51 54° E 09:47:09 10° S visible
07 Dec 8.3 11:15:09 10° NW 11:16:36 12° WNW 11:18:04 10° W visible
07 Dec 9.6 21:52:18 10° SW 21:54:43 17° W 21:57:06 10° NW visible
08 Dec 8.7 09:12:21 10° NE 09:15:11 24° E 09:18:00 10° SSE visible
08 Dec 7.5 10:45:33 10° NNW 10:48:19 24° WNW 10:51:04 10° WSW visible
08 Dec 8.3 21:22:45 10° SSW 21:26:00 36° W 21:29:13 10° NNW visible
09 Dec 9.8 08:45:06 10° ENE 08:46:24 12° E 08:47:42 10° ESE visible
09 Dec 6.5 10:16:36 10° N 10:19:55 50° WNW 10:23:11 10° SSW visible
10 Dec 7.0 09:47:59 10° NNE 09:52:06 49° SSE 09:54:45 10° S visible
10 Dec 8.5 11:26:13 - W 11:26:13 - W 11:23:25 10° NW visible
10 Dec 9.7 22:00:20 10° SW 22:02:17 14° W 22:04:14 10° WNW visible
11 Dec 8.6 09:19:42 10° NNE 09:23:58 23° SE 09:25:44 10° SSE visible
11 Dec 8.5 10:53:14 10° NNW 10:58:05 11° WSW 10:58:18 10° WSW visible
11 Dec 8.7 21:30:28 10° SSW 21:33:32 29° W 21:36:35 10° NW visible
12 Dec 9.7 08:55:37 11° ESE 08:55:37 11° ESE 08:55:53 10° SE visible
12 Dec 8.4 10:24:09 10° N 10:29:43 16° SW 10:30:34 10° SW visible
13 Dec 8.5 10:01:15 18° SSW 10:01:15 18° SSW 10:02:14 10° SSW visible
13 Dec 9.9 22:08:32 10° WSW 22:09:49 12° W 22:11:06 10° WNW visible
14 Dec 9.0 09:32:43 14° SSE 09:32:43 14° SSE 09:33:22 10° SSE visible
14 Dec9.111:06:49WSW11:06:49WSW11:00:12NNWvisible
14 Dec 9.1 21:38:10 10° SSW 21:41:01 24° W 21:43:50 10° NW visible
